Etusivu
METAR-TAF:

METAR-TAF

Lentoasemat :

Sheboygan County Memorial Airport

Sheboygan, Wisconsin, Yhdysvallat

Leveyspiiri: 43-46-35N, Pituuspiiri: 087-50-59W, korkeus merenpinnasta: 228 m

Tämänhetkinen sää

Tämä raportti tehtiin 40 minuuttia sitten, kello 06.53 UTC
tyyntä
Lämpötila 1°C
Kosteus 80%
Ilmanpaine 1021 hPa
Näkyvyys: 14.5 km
selkeää

METAR: KSBM 020653Z AUTO 00000KT 9SM CLR 01/M02 A3014 RMK AO2 SLP211 T00061017

Aika: 02:33 (07:33 UTC)


TAF: puuttuu

Säähavainnot ja -ennusteet yli 4000 lentoasemalta (METAR- ja TAF-raportit).

Käytössä olevat sääasemat on merkitty karttaan keltaisilla ja punaisilla pisteillä.

Aseta hiiri pisteen päälle nähdäksesi sääaseman nimen.

Klikkaa sitten nähdäksesi säähavainnot ja -ennusteet.

Kartan vaihtaminen: klikkaa mustalla rastilla varustettuja vihreitä pisteitä, niin voit zoomata sisään; viivalla varustettua vihreää pistettä, niin voit zoomata ulos tai vihreitä nuolia, niin pääset viereisille kartoille.


METAR-TAF: